This is the latest recevied weather packets stored in our database for station/object PP5ABU-13. If no packets are shown the sender has not sent any weather packets the latest 10 day(s).
| Time | Temp. | Humidity | Pressure | Rain* | Wind** | Luminosity | Snow |
|---|---|---|---|---|---|---|---|
| 1777952704 | 20° C | 99% | 1015.9 hPa | 0 mm | - | - | - |
| 1777951804 | 20° C | 99% | 1015.6 hPa | 0.25 mm | - | - | - |
| 1777950904 | 19.44° C | 99% | 1016 hPa | 0.25 mm | - | - | - |
| 1777950004 | 19.44° C | 99% | 1016.2 hPa | 1.02 mm | - | - | - |
| 1777949104 | 20° C | 99% | 1015.8 hPa | 1.52 mm | - | - | - |
| 1777948204 | 20° C | 99% | 1016 hPa | 1.78 mm | - | - | - |
| 1777947304 | 20° C | 99% | 1016 hPa | 1.78 mm | - | - | - |
| 1777946405 | 20° C | 99% | 1016.4 hPa | 1.27 mm | - | - | - |
| 1777945504 | 20.56° C | 97% | 1016.8 hPa | 0.25 mm | - | - | - |
| 1777944604 | 20.56° C | 96% | 1017.2 hPa | 0 mm | - | - | - |
| 1777943704 | 20.56° C | 96% | 1017 hPa | 0 mm | - | - | - |
| 1777942805 | 20.56° C | 95% | 1016.6 hPa | 0 mm | - | - | - |
| 1777941904 | 20.56° C | 94% | 1016.8 hPa | 0 mm | - | - | - |
| 1777941004 | 20.56° C | 94% | 1016.2 hPa | 0 mm | - | - | - |
| 1777940104 | 20.56° C | 94% | 1015.9 hPa | 0 mm | - | - | - |
| 1777939204 | 21.11° C | 94% | 1016.1 hPa | 0 mm | - | - | - |
| 1777938305 | 21.11° C | 92% | 1016.2 hPa | 0 mm | - | - | - |
| 1777937404 | 21.11° C | 90% | 1015.2 hPa | 0 mm | - | - | - |
| 1777936504 | 21.67° C | 90% | 1014.8 hPa | 0 mm | - | - | - |
| 1777935604 | 21.11° C | 90% | 1016 hPa | 0 mm | - | - | - |
| 1777934704 | 21.11° C | 91% | 1015.9 hPa | 0 mm | - | - | - |
| 1777933804 | 21.11° C | 90% | 1016 hPa | 0 mm | - | - | - |
| 1777932904 | 21.11° C | 89% | 1016 hPa | 0 mm | - | - | - |
| 1777932005 | 21.67° C | 87% | 1015.7 hPa | 0 mm | - | - | - |
| 1777931104 | 21.67° C | 87% | 1015.7 hPa | 0 mm | - | - | - |
* Rain latest hour (hover to see other rain measurements)
** Current wind speed in m/s (hover to see current wind gust speed)